TimeMDT,TemperatureF,Dew PointF,Humidity,Sea Level PressureIn,VisibilityMPH,Wind Direction,Wind SpeedMPH,Gust SpeedMPH,PrecipitationIn,Events,Conditions,WindDirDegrees,DateUTC
1:53 AM,39.0,26.1,60,30.22,10.0,West,8.1,-,N/A,,Mostly Cloudy,260,2012-10-07 07:53:00
2:53 AM,39.0,24.1,55,30.20,10.0,WNW,8.1,-,N/A,,Overcast,290,2012-10-07 08:53:00
3:53 AM,41.0,19.9,43,30.16,10.0,WSW,16.1,-,N/A,,Clear,250,2012-10-07 09:53:00
4:53 AM,35.1,23.0,61,30.19,10.0,WNW,10.4,-,N/A,,Clear,300,2012-10-07 10:53:00
5:53 AM,36.0,21.0,55,30.19,10.0,West,12.7,-,N/A,,Clear,270,2012-10-07 11:53:00
6:53 AM,37.0,21.0,52,30.19,10.0,West,13.8,-,N/A,,Clear,270,2012-10-07 12:53:00
7:53 AM,37.9,21.0,51,30.19,10.0,WNW,10.4,23.0,N/A,,Partly Cloudy,290,2012-10-07 13:53:00
8:53 AM,39.0,23.0,53,30.19,10.0,WNW,10.4,-,N/A,,Clear,290,2012-10-07 14:53:00
9:53 AM,48.0,23.0,37,30.13,10.0,SW,24.2,32.2,N/A,,Clear,230,2012-10-07 15:53:00
10:53 AM,52.0,24.1,34,30.09,10.0,SW,25.3,32.2,N/A,,Clear,230,2012-10-07 16:53:00
11:53 AM,55.0,24.1,30,30.06,10.0,SW,26.5,35.7,N/A,,Clear,230,2012-10-07 17:53:00
12:53 PM,57.9,24.1,27,30.03,10.0,WSW,21.9,33.4,N/A,,Clear,240,2012-10-07 18:53:00
1:53 PM,61.0,23.0,23,30.00,10.0,West,25.3,33.4,N/A,,Clear,280,2012-10-07 19:53:00
2:53 PM,62.1,23.0,22,29.97,10.0,West,24.2,-,N/A,,Clear,280,2012-10-07 20:53:00
3:53 PM,62.1,21.0,21,29.96,10.0,WSW,20.7,27.6,N/A,,Clear,250,2012-10-07 21:53:00
4:53 PM,62.1,21.0,21,29.96,10.0,West,16.1,25.3,N/A,,Clear,270,2012-10-07 22:53:00
5:53 PM,61.0,21.0,21,29.95,10.0,West,15.0,27.6,N/A,,Clear,270,2012-10-07 23:53:00
6:53 PM,55.9,21.9,27,29.94,10.0,West,13.8,-,N/A,,Clear,260,2012-10-08 00:53:00
7:53 PM,51.1,21.9,32,29.95,10.0,West,9.2,-,N/A,,Clear,280,2012-10-08 01:53:00
8:53 PM,50.0,23.0,35,29.96,10.0,NW,9.2,-,N/A,,Clear,310,2012-10-08 02:53:00
9:53 PM,43.0,23.0,45,29.96,10.0,West,4.6,-,N/A,,Clear,270,2012-10-08 03:53:00
10:53 PM,39.9,25.0,55,29.97,10.0,WNW,8.1,-,N/A,,Clear,290,2012-10-08 04:53:00
11:53 PM,41.0,24.1,51,29.97,10.0,WSW,11.5,-,N/A,,Clear,250,2012-10-08 05:53:00